Location: Dos Palmas
(32.4468°N, 116.8732°W)
Time: 13:23:45
(UTC+00:00)

Cosmos 1844 - Pass Details

Date: 20 June 2021
Orbit: 823 x 867 km, 70.9° (Epoch: 30 July)

Event Time Altitude Azimuth Distance (km) Brightness Sun altitude
Rises 05:10:28 0° 343° (NNW) 3,368 8.0 -22.5°
Reaches altitude 10° 05:12:55 10° 346° (NNW) 2,435 7.0 -22.8°
Maximum altitude 05:18:28 66° 68° (ENE) 908 3.7 -23.6°
Enters shadow 05:19:26 55° 117° (ESE) 991 3.7 -23.7°
